THORAD AGENA D DEB, 4133

Orbit data source: Space-Track

THORAD AGENA D DEB, 4133 is space debris in LEO originally from a launch on Tue, 30 Sep 1969 UTC launched from the Air Force Western Test Range (AFWTR). Debris objects in space refer to the collection of defunct objects orbiting the Earth. Examples of debris include non-operational satellites, rocket bodies, and fragments generated from explosions, collisions, or faulty payload assembly.

Loading next visibility...
Identifier
4133, 1969-082CP
Orbit
LEO
Country
Flag of USUS
Related business
Manufacturer
Unknown
Mission
Spacecraft
Bus & Motor
Unknown
Mass
Unknown
Launch date (UTC)
1969-09-30 (57 years ago)
Launch vehicle
Unknown
Launch site
Air Force Western Test Range (AFWTR)
Object type
Payload
Rocket body
Debris
Shape & HBR
Unknown shape, 0.1 m
Radar Cross Section
Medium (>0.1 m² and <1 m²)

Expand to show TLE details & history
Last TLE update: 15 hours ago

TLE from 15 hours ago
0 THORAD AGENA D DEB
1 04133U 69082CP  26173.74535550  .00072974  00000-0  15561-2 0  9998
2 04133  69.8891 343.6433 0016309 197.1635 162.8998 15.44391950991611
Epoch: 2026-06-22T17:53Z
TLE epoch observation values (Epoch: 2026-06-22T17:53:18.715Z)
Latitude
0.00002°
Longitude
164.38846°
Altitude
446.251 km
Speed
7.639 km/s
True Right ascension
22h 54m 34s
True Declination
0° 00' 00"
Sunlit
Object was in daylight at epoch
Visualization orbit readout
Latitude
Unknown
Longitude
Unknown
Altitude
Unknown
Speed
Unknown
Apparent Right ascension
Unknown
Apparent Declination
Unknown
Sunlit
N/A
Visualization observer readout
Local Sidereal Time
19:55:00
Azimuth
Unknown
Elevation
Unknown
Doppler factor
Unknown
Orbital elements
Apogee altitude
442.189 km
Perigee altitude
419.978 km
Semi-major axis
6,809.221 km
Eccentricity
0.00163
Inclination
69.8891°
RAAN
343.6433°
Arg. of periapsis
197.1635°
True anomaly
162.95465°
Mean anomaly
162.8998°
Eccentric anomaly
162.92723°
Mean motion
3.86275 °/min
Orbital period
93.2 mins
BSTAR
0.0015561

Documentation

Showing up to 5 results
|